owner,sensor,date,latitude,longitude,vertical_datum,direction_of_sea_water_velocity,sea_water_speed,upward_sea_water_velocity,qcFlag 
TABS,ioos:station:wmo:42050:1,2002-03-01T00:00:00Z,28.8425,-94.2433,2.0,248.9679143,21.28817747,-99999.0,'11111222,11111222,99999999' 
TABS,ioos:station:wmo:42050:1,2002-03-01T00:30:00Z,28.8425,-94.2433,2.0,250.8163445,22.03346773,-99999.0,'11111222,11111222,99999999' 
TABS,ioos:station:wmo:42050:1,2002-03-01T01:00:00Z,28.8425,-94.2433,2.0,247.7690308,23.55054352,-99999.0,'11111222,11111222,99999999' 
TABS,ioos:station:wmo:42050:1,2002-03-01T01:30:00Z,28.8425,-94.2433,2.0,251.6823838,24.62787039,-99999.0,'11111222,11111222,99999999' 
TABS,ioos:station:wmo:42050:1,2002-03-01T02:00:00Z,28.8425,-94.2433,2.0,252.2309608,23.65859886,-99999.0,'11111222,11111222,99999999' 
TABS,ioos:station:wmo:42050:1,2002-03-01T02:30:00Z,28.8425,-94.2433,2.0,258.7317945,21.34136359,-99999.0,'11111222,11111222,99999999' 
TABS,ioos:station:wmo:42050:1,2002-03-01T03:00:00Z,28.8425,-94.2433,2.0,261.4551446,24.83565381,-99999.0,'11111222,11111222,99999999' 
TABS,ioos:station:wmo:42050:1,2002-03-01T03:30:00Z,28.8425,-94.2433,2.0,270.2559959,24.66024534,-99999.0,'11111222,11111222,99999999' 
TABS,ioos:station:wmo:42050:1,2002-03-01T04:00:00Z,28.8425,-94.2433,2.0,269.2721468,19.69158704,-99999.0,'11111222,11111222,99999999' 
TABS,ioos:station:wmo:42050:1,2002-03-01T04:30:00Z,28.8425,-94.2433,2.0,279.7318179,21.00220227,-99999.0,'11111222,11111222,99999999' 
TABS,ioos:station:wmo:42050:1,2002-03-01T05:00:00Z,28.8425,-94.2433,2.0,278.0506405,24.34995277,-99999.0,'11111222,11111222,99999999' 
TABS,ioos:station:wmo:42050:1,2002-03-01T05:30:00Z,28.8425,-94.2433,2.0,291.0620513,20.42447551,-99999.0,'11111222,11111222,99999999' 
TABS,ioos:station:wmo:42050:1,2002-03-01T06:00:00Z,28.8425,-94.2433,2.0,282.2008611,24.22719134,-99999.0,'11111222,11111222,99999999' 
TABS,ioos:station:wmo:42050:1,2002-03-01T06:30:00Z,28.8425,-94.2433,2.0,282.3534913,21.22132182,-99999.0,'11111222,11111222,99999999' 
TABS,ioos:station:wmo:42050:1,2002-03-01T07:00:00Z,28.8425,-94.2433,2.0,273.2342936,24.10839066,-99999.0,'11111222,11111222,99999999' 
TABS,ioos:station:wmo:42050:1,2002-03-01T07:30:00Z,28.8425,-94.2433,2.0,281.8722242,22.79763584,-99999.0,'11111222,11111222,99999999' 
TABS,ioos:station:wmo:42050:1,2002-03-01T08:00:00Z,28.8425,-94.2433,2.0,277.6579194,24.69018023,-99999.0,'11111222,11111222,99999999' 
TABS,ioos:station:wmo:42050:1,2002-03-01T08:30:00Z,28.8425,-94.2433,2.0,269.3813937,23.17134869,-99999.0,'11111222,11111222,99999999' 
TABS,ioos:station:wmo:42050:1,2002-03-01T09:00:00Z,28.8425,-94.2433,2.0,271.6797646,25.25084553,-99999.0,'11111222,11111222,99999999' 
TABS,ioos:station:wmo:42050:1,2002-03-01T09:30:00Z,28.8425,-94.2433,2.0,272.4199245,25.58280673,-99999.0,'11111222,11111222,99999999' 
TABS,ioos:station:wmo:42050:1,2002-03-01T10:00:00Z,28.8425,-94.2433,2.0,267.9647813,25.06580539,-99999.0,'11111222,11111222,99999999' 
TABS,ioos:station:wmo:42050:1,2002-03-01T10:30:00Z,28.8425,-94.2433,2.0,271.2547118,26.49634881,-99999.0,'11111222,11111222,99999999' 
TABS,ioos:station:wmo:42050:1,2002-03-01T11:00:00Z,28.8425,-94.2433,2.0,261.1810632,26.48306062,-99999.0,'11111222,11111222,99999999' 
TABS,ioos:station:wmo:42050:1,2002-03-01T11:30:00Z,28.8425,-94.2433,2.0,259.9226004,27.89024919,-99999.0,'11111222,11111222,99999999' 
TABS,ioos:station:wmo:42050:1,2002-03-01T12:00:00Z,28.8425,-94.2433,2.0,253.9142401,25.30051778,-99999.0,'11111222,11111222,99999999' 
TABS,ioos:station:wmo:42050:1,2002-03-01T12:30:00Z,28.8425,-94.2433,2.0,259.3337957,26.69113149,-99999.0,'11111222,11111222,99999999' 
TABS,ioos:station:wmo:42050:1,2002-03-01T13:00:00Z,28.8425,-94.2433,2.0,245.5556815,28.75764942,-99999.0,'11111222,11111222,99999999' 
TABS,ioos:station:wmo:42050:1,2002-03-01T13:30:00Z,28.8425,-94.2433,2.0,251.8839929,31.7750594,-99999.0,'11111222,11111222,99999999' 
TABS,ioos:station:wmo:42050:1,2002-03-01T14:00:00Z,28.8425,-94.2433,2.0,246.3060338,36.78030451,-99999.0,'11111222,11111222,99999999' 
TABS,ioos:station:wmo:42050:1,2002-03-01T14:30:00Z,28.8425,-94.2433,2.0,253.9445063,44.47468493,-99999.0,'11111222,11111222,99999999' 
TABS,ioos:station:wmo:42050:1,2002-03-01T15:00:00Z,28.8425,-94.2433,2.0,252.2062817,45.74837702,-99999.0,'11111222,11111222,99999999' 
TABS,ioos:station:wmo:42050:1,2002-03-01T15:30:00Z,28.8425,-94.2433,2.0,257.7460212,47.8705964,-99999.0,'11111222,11111222,99999999' 
TABS,ioos:station:wmo:42050:1,2002-03-01T16:00:00Z,28.8425,-94.2433,2.0,261.6933274,55.65380939,-99999.0,'11111222,11111222,99999999' 
TABS,ioos:station:wmo:42050:1,2002-03-01T16:30:00Z,28.8425,-94.2433,2.0,262.7216338,61.33415443,-99999.0,'11111222,11111222,99999999' 
TABS,ioos:station:wmo:42050:1,2002-03-01T17:00:00Z,28.8425,-94.2433,2.0,271.3827966,61.34785489,-99999.0,'11111222,11111222,99999999' 
TABS,ioos:station:wmo:42050:1,2002-03-01T17:30:00Z,28.8425,-94.2433,2.0,271.120285,58.84123894,-99999.0,'11111222,11111222,99999999' 
TABS,ioos:station:wmo:42050:1,2002-03-01T18:00:00Z,28.8425,-94.2433,2.0,269.2778168,52.39415712,-99999.0,'11111222,11111222,99999999' 
TABS,ioos:station:wmo:42050:1,2002-03-01T18:30:00Z,28.8425,-94.2433,2.0,272.1264573,47.17247185,-99999.0,'11111222,11111222,99999999' 
TABS,ioos:station:wmo:42050:1,2002-03-01T19:00:00Z,28.8425,-94.2433,2.0,267.3544376,43.98686736,-99999.0,'11111222,11111222,99999999' 
TABS,ioos:station:wmo:42050:1,2002-03-01T19:30:00Z,28.8425,-94.2433,2.0,266.6083516,40.74134264,-99999.0,'11111222,11111222,99999999' 
TABS,ioos:station:wmo:42050:1,2002-03-01T20:00:00Z,28.8425,-94.2433,2.0,260.9932453,35.32552901,-99999.0,'11111222,11111222,99999999' 
TABS,ioos:station:wmo:42050:1,2002-03-01T20:30:00Z,28.8425,-94.2433,2.0,255.7270991,54.11015801,-99999.0,'11111222,11111222,99999999' 
TABS,ioos:station:wmo:42050:1,2002-03-01T21:00:00Z,28.8425,-94.2433,2.0,253.5530602,61.24592395,-99999.0,'11111222,11111222,99999999' 
TABS,ioos:station:wmo:42050:1,2002-03-01T21:30:00Z,28.8425,-94.2433,2.0,255.0988876,62.53280179,-99999.0,'11111222,11111222,99999999' 
TABS,ioos:station:wmo:42050:1,2002-03-01T22:00:00Z,28.8425,-94.2433,2.0,247.4970282,65.39936773,-99999.0,'11111222,11111222,99999999' 
TABS,ioos:station:wmo:42050:1,2002-03-01T22:30:00Z,28.8425,-94.2433,2.0,242.7256602,68.67490444,-99999.0,'11111222,11111222,99999999' 
TABS,ioos:station:wmo:42050:1,2002-03-01T23:00:00Z,28.8425,-94.2433,2.0,250.3175821,68.28975033,-99999.0,'11111222,11111222,99999999' 
TABS,ioos:station:wmo:42050:1,2002-03-01T23:30:00Z,28.8425,-94.2433,2.0,246.4514145,69.93379512,-99999.0,'11111222,11111222,99999999' 
TABS,ioos:station:wmo:42050:1,2002-03-02T00:00:00Z,28.8425,-94.2433,2.0,247.5099039,67.39555846,-99999.0,'11111222,11111222,99999999' 
TABS,ioos:station:wmo:42050:1,2002-03-02T00:30:00Z,28.8425,-94.2433,2.0,242.2538733,73.13942439,-99999.0,'11111222,11111222,99999999' 
TABS,ioos:station:wmo:42050:1,2002-03-02T01:00:00Z,28.8425,-94.2433,2.0,245.4576349,76.89711373,-99999.0,'11111222,11111222,99999999' 
TABS,ioos:station:wmo:42050:1,2002-03-02T01:30:00Z,28.8425,-94.2433,2.0,239.9663689,69.49010001,-99999.0,'11111222,11111222,99999999' 
TABS,ioos:station:wmo:42050:1,2002-03-02T02:00:00Z,28.8425,-94.2433,2.0,247.1568607,73.15747672,-99999.0,'11111222,11111222,99999999' 
TABS,ioos:station:wmo:42050:1,2002-03-02T02:30:00Z,28.8425,-94.2433,2.0,248.9609471,70.30677066,-99999.0,'11111222,11111222,99999999' 
TABS,ioos:station:wmo:42050:1,2002-03-02T03:00:00Z,28.8425,-94.2433,2.0,244.8144733,72.61276816,-99999.0,'11111222,11111222,99999999' 
TABS,ioos:station:wmo:42050:1,2002-03-02T03:30:00Z,28.8425,-94.2433,2.0,249.7448986,70.10510538,-99999.0,'11111222,11111222,99999999' 
TABS,ioos:station:wmo:42050:1,2002-03-02T04:00:00Z,28.8425,-94.2433,2.0,250.0158873,77.45350218,-99999.0,'11111222,11111222,99999999' 
TABS,ioos:station:wmo:42050:1,2002-03-02T04:30:00Z,28.8425,-94.2433,2.0,253.036634,79.27916372,-99999.0,'11111222,11111222,99999999' 
TABS,ioos:station:wmo:42050:1,2002-03-02T05:00:00Z,28.8425,-94.2433,2.0,254.5416028,73.31198538,-99999.0,'11111222,11111222,99999999' 
TABS,ioos:station:wmo:42050:1,2002-03-02T05:30:00Z,28.8425,-94.2433,2.0,256.4853515,64.95858681,-99999.0,'11111222,11111222,99999999' 
TABS,ioos:station:wmo:42050:1,2002-03-02T06:00:00Z,28.8425,-94.2433,2.0,258.1041905,69.86021471,-99999.0,'11111222,11111222,99999999' 
TABS,ioos:station:wmo:42050:1,2002-03-02T06:30:00Z,28.8425,-94.2433,2.0,257.1815261,66.16897158,-99999.0,'11111222,11111222,99999999' 
TABS,ioos:station:wmo:42050:1,2002-03-02T07:00:00Z,28.8425,-94.2433,2.0,257.2804978,65.31269785,-99999.0,'11111222,11111222,99999999' 
TABS,ioos:station:wmo:42050:1,2002-03-02T07:30:00Z,28.8425,-94.2433,2.0,258.7017684,65.0301507,-99999.0,'11111222,11111222,99999999' 
TABS,ioos:station:wmo:42050:1,2002-03-02T08:00:00Z,28.8425,-94.2433,2.0,257.7615591,59.20542289,-99999.0,'11111222,11111222,99999999' 
TABS,ioos:station:wmo:42050:1,2002-03-02T08:30:00Z,28.8425,-94.2433,2.0,258.3586526,63.13868228,-99999.0,'11111222,11111222,99999999' 
TABS,ioos:station:wmo:42050:1,2002-03-02T09:00:00Z,28.8425,-94.2433,2.0,259.6185548,62.54377107,-99999.0,'11111222,11111222,99999999' 
TABS,ioos:station:wmo:42050:1,2002-03-02T09:30:00Z,28.8425,-94.2433,2.0,253.5952463,61.04499324,-99999.0,'11111222,11111222,99999999' 
TABS,ioos:station:wmo:42050:1,2002-03-02T10:00:00Z,28.8425,-94.2433,2.0,255.5945174,57.6422111,-99999.0,'11111222,11111222,99999999' 
TABS,ioos:station:wmo:42050:1,2002-03-02T10:30:00Z,28.8425,-94.2433,2.0,257.4718765,57.76532697,-99999.0,'11111222,11111222,99999999' 
TABS,ioos:station:wmo:42050:1,2002-03-02T11:00:00Z,28.8425,-94.2433,2.0,252.3036458,57.37481329,-99999.0,'11111222,11111222,99999999' 
TABS,ioos:station:wmo:42050:1,2002-03-02T11:30:00Z,28.8425,-94.2433,2.0,252.2713201,53.33270666,-99999.0,'11111222,11111222,99999999' 
TABS,ioos:station:wmo:42050:1,2002-03-02T12:00:00Z,28.8425,-94.2433,2.0,250.9499081,54.22985893,-99999.0,'11111222,11111222,99999999' 
TABS,ioos:station:wmo:42050:1,2002-03-02T12:30:00Z,28.8425,-94.2433,2.0,248.6273134,54.79837406,-99999.0,'11111222,11111222,99999999' 
TABS,ioos:station:wmo:42050:1,2002-03-02T13:00:00Z,28.8425,-94.2433,2.0,247.3480825,48.68539206,-99999.0,'11111222,11111222,99999999' 
TABS,ioos:station:wmo:42050:1,2002-03-02T13:30:00Z,28.8425,-94.2433,2.0,250.1085242,52.14066072,-99999.0,'11111222,11111222,99999999' 
TABS,ioos:station:wmo:42050:1,2002-03-02T14:00:00Z,28.8425,-94.2433,2.0,249.1133799,47.31935122,-99999.0,'11111222,11111222,99999999' 
TABS,ioos:station:wmo:42050:1,2002-03-02T14:30:00Z,28.8425,-94.2433,2.0,250.9582991,51.09578163,-99999.0,'11111222,11111222,99999999' 
TABS,ioos:station:wmo:42050:1,2002-03-02T15:00:00Z,28.8425,-94.2433,2.0,246.3418485,47.34930728,-99999.0,'11111222,11111222,99999999' 
TABS,ioos:station:wmo:42050:1,2002-03-02T15:30:00Z,28.8425,-94.2433,2.0,247.6687223,46.21597235,-99999.0,'11111222,11111222,99999999' 
TABS,ioos:station:wmo:42050:1,2002-03-02T16:00:00Z,28.8425,-94.2433,2.0,250.6008402,46.99809571,-99999.0,'11111222,11111222,99999999' 
TABS,ioos:station:wmo:42050:1,2002-03-02T16:30:00Z,28.8425,-94.2433,2.0,247.342921,46.65000965,-99999.0,'11111222,11111222,99999999' 
TABS,ioos:station:wmo:42050:1,2002-03-02T17:00:00Z,28.8425,-94.2433,2.0,256.3249795,40.73466951,-99999.0,'11111222,11111222,99999999' 
TABS,ioos:station:wmo:42050:1,2002-03-02T17:30:00Z,28.8425,-94.2433,2.0,266.6941671,40.2369395,-99999.0,'11111222,11111222,99999999' 
TABS,ioos:station:wmo:42050:1,2002-03-02T18:00:00Z,28.8425,-94.2433,2.0,262.8511168,39.37607014,-99999.0,'11111222,11111222,99999999' 
TABS,ioos:station:wmo:42050:1,2002-03-02T18:30:00Z,28.8425,-94.2433,2.0,248.7841875,39.76502232,-99999.0,'11111222,11111222,99999999' 
TABS,ioos:station:wmo:42050:1,2002-03-02T19:00:00Z,28.8425,-94.2433,2.0,227.6649159,25.24273361,-99999.0,'11111222,11111222,99999999' 
TABS,ioos:station:wmo:42050:1,2002-03-02T19:30:00Z,28.8425,-94.2433,2.0,215.0737734,32.03773556,-99999.0,'11111222,11111222,99999999' 
TABS,ioos:station:wmo:42050:1,2002-03-02T20:00:00Z,28.8425,-94.2433,2.0,210.2685435,36.62278662,-99999.0,'11111222,11111222,99999999' 
TABS,ioos:station:wmo:42050:1,2002-03-02T20:30:00Z,28.8425,-94.2433,2.0,213.7843526,38.64601532,-99999.0,'11111222,11111222,99999999' 
TABS,ioos:station:wmo:42050:1,2002-03-02T21:00:00Z,28.8425,-94.2433,2.0,220.0557766,36.01967934,-99999.0,'11111222,11111222,99999999' 
TABS,ioos:station:wmo:42050:1,2002-03-02T21:30:00Z,28.8425,-94.2433,2.0,217.8707178,38.00380113,-99999.0,'11111222,11111222,99999999' 
TABS,ioos:station:wmo:42050:1,2002-03-02T22:00:00Z,28.8425,-94.2433,2.0,226.5083967,33.30213206,-99999.0,'11111222,11111222,99999999' 
TABS,ioos:station:wmo:42050:1,2002-03-02T22:30:00Z,28.8425,-94.2433,2.0,232.0737998,29.62703158,-99999.0,'11111222,11111222,99999999' 
TABS,ioos:station:wmo:42050:1,2002-03-02T23:00:00Z,28.8425,-94.2433,2.0,225.4161908,24.31804474,-99999.0,'11111222,11111222,99999999' 
TABS,ioos:station:wmo:42050:1,2002-03-02T23:30:00Z,28.8425,-94.2433,2.0,223.7990118,29.35844853,-99999.0,'11111222,11111222,99999999' 
TABS,ioos:station:wmo:42050:1,2002-03-03T00:00:00Z,28.8425,-94.2433,2.0,232.8467202,28.74435075,-99999.0,'11111222,11111222,99999999' 
TABS,ioos:station:wmo:42050:1,2002-03-03T00:30:00Z,28.8425,-94.2433,2.0,214.1082853,31.13615262,-99999.0,'11111222,11111222,99999999' 
TABS,ioos:station:wmo:42050:1,2002-03-03T01:00:00Z,28.8425,-94.2433,2.0,217.9256928,37.43635933,-99999.0,'11111222,11111222,99999999' 
TABS,ioos:station:wmo:42050:1,2002-03-03T01:30:00Z,28.8425,-94.2433,2.0,210.3159258,36.57097893,-99999.0,'11111222,11111222,99999999' 
TABS,ioos:station:wmo:42050:1,2002-03-03T02:00:00Z,28.8425,-94.2433,2.0,221.7771517,37.35895743,-99999.0,'11111222,11111222,99999999' 
TABS,ioos:station:wmo:42050:1,2002-03-03T02:30:00Z,28.8425,-94.2433,2.0,206.6068371,42.64629996,-99999.0,'11111222,11111222,99999999' 
TABS,ioos:station:wmo:42050:1,2002-03-03T03:00:00Z,28.8425,-94.2433,2.0,207.1737961,39.12892792,-99999.0,'11111222,11111222,99999999' 
TABS,ioos:station:wmo:42050:1,2002-03-03T03:30:00Z,28.8425,-94.2433,2.0,215.1149221,41.14929526,-99999.0,'11111222,11111222,99999999' 
TABS,ioos:station:wmo:42050:1,2002-03-03T04:00:00Z,28.8425,-94.2433,2.0,211.4191546,42.91201813,-99999.0,'11111222,11111222,99999999' 
TABS,ioos:station:wmo:42050:1,2002-03-03T04:30:00Z,28.8425,-94.2433,2.0,233.2509893,40.64809098,-99999.0,'11111222,11111222,99999999' 
TABS,ioos:station:wmo:42050:1,2002-03-03T05:00:00Z,28.8425,-94.2433,2.0,226.2031973,43.76542242,-99999.0,'11111222,11111222,99999999' 
TABS,ioos:station:wmo:42050:1,2002-03-03T05:30:00Z,28.8425,-94.2433,2.0,223.2572473,43.71941445,-99999.0,'11111222,11111222,99999999' 
TABS,ioos:station:wmo:42050:1,2002-03-03T06:00:00Z,28.8425,-94.2433,2.0,225.2977459,42.13706326,-99999.0,'11111222,11111222,99999999' 
TABS,ioos:station:wmo:42050:1,2002-03-03T06:30:00Z,28.8425,-94.2433,2.0,238.373794,36.80605385,-99999.0,'11111222,11111222,99999999' 
TABS,ioos:station:wmo:42050:1,2002-03-03T07:00:00Z,28.8425,-94.2433,2.0,223.9782325,32.12896668,-99999.0,'11111222,11111222,99999999' 
TABS,ioos:station:wmo:42050:1,2002-03-03T07:30:00Z,28.8425,-94.2433,2.0,223.5411181,26.3907048,-99999.0,'11111222,11111222,99999999' 
TABS,ioos:station:wmo:42050:1,2002-03-03T08:00:00Z,28.8425,-94.2433,2.0,230.2608597,21.97754536,-99999.0,'11111222,11111222,99999999' 
TABS,ioos:station:wmo:42050:1,2002-03-03T08:30:00Z,28.8425,-94.2433,2.0,234.6660642,20.88750823,-99999.0,'11111222,11111222,99999999' 
TABS,ioos:station:wmo:42050:1,2002-03-03T09:00:00Z,28.8425,-94.2433,2.0,236.120808,21.88581504,-99999.0,'11111222,11111222,99999999' 
TABS,ioos:station:wmo:42050:1,2002-03-03T09:30:00Z,28.8425,-94.2433,2.0,241.9431056,21.13353023,-99999.0,'11111222,11111222,99999999' 
TABS,ioos:station:wmo:42050:1,2002-03-03T10:00:00Z,28.8425,-94.2433,2.0,236.1240931,20.56007053,-99999.0,'11111222,11111222,99999999' 
TABS,ioos:station:wmo:42050:1,2002-03-03T10:30:00Z,28.8425,-94.2433,2.0,229.5955613,22.06195821,-99999.0,'11111222,11111222,99999999' 
TABS,ioos:station:wmo:42050:1,2002-03-03T11:00:00Z,28.8425,-94.2433,2.0,232.3567545,19.27175394,-99999.0,'11111222,11111222,99999999' 
TABS,ioos:station:wmo:42050:1,2002-03-03T11:30:00Z,28.8425,-94.2433,2.0,228.1565871,21.57120766,-99999.0,'11111222,11111222,99999999' 
TABS,ioos:station:wmo:42050:1,2002-03-03T12:00:00Z,28.8425,-94.2433,2.0,233.9609734,22.33435023,-99999.0,'11111222,11111222,99999999' 
TABS,ioos:station:wmo:42050:1,2002-03-03T12:30:00Z,28.8425,-94.2433,2.0,222.6109844,24.43055464,-99999.0,'11111222,11111222,99999999' 
TABS,ioos:station:wmo:42050:1,2002-03-03T13:00:00Z,28.8425,-94.2433,2.0,232.071657,22.7438783,-99999.0,'11111222,11111222,99999999' 
TABS,ioos:station:wmo:42050:1,2002-03-03T13:30:00Z,28.8425,-94.2433,2.0,233.1720924,18.95200517,-99999.0,'11111222,11111222,99999999' 
TABS,ioos:station:wmo:42050:1,2002-03-03T14:00:00Z,28.8425,-94.2433,2.0,219.9219908,18.85475006,-99999.0,'11111222,11111222,99999999' 
TABS,ioos:station:wmo:42050:1,2002-03-03T14:30:00Z,28.8425,-94.2433,2.0,215.0153914,21.81942483,-99999.0,'11111222,11111222,99999999' 
TABS,ioos:station:wmo:42050:1,2002-03-03T15:00:00Z,28.8425,-94.2433,2.0,218.593529,27.12427695,-99999.0,'11111222,11111222,99999999' 
TABS,ioos:station:wmo:42050:1,2002-03-03T15:30:00Z,28.8425,-94.2433,2.0,206.348615,21.33671249,-99999.0,'11111222,11111222,99999999' 
TABS,ioos:station:wmo:42050:1,2002-03-03T16:00:00Z,28.8425,-94.2433,2.0,214.7719758,23.4957443,-99999.0,'11111222,11111222,99999999' 
TABS,ioos:station:wmo:42050:1,2002-03-03T16:30:00Z,28.8425,-94.2433,2.0,221.4364246,25.14382827,-99999.0,'11111222,11111222,99999999' 
TABS,ioos:station:wmo:42050:1,2002-03-03T17:00:00Z,28.8425,-94.2433,2.0,222.4058205,23.28059492,-99999.0,'11111222,11111222,99999999' 
TABS,ioos:station:wmo:42050:1,2002-03-03T17:30:00Z,28.8425,-94.2433,2.0,230.4158852,21.50011395,-99999.0,'11111222,11111222,99999999' 
TABS,ioos:station:wmo:42050:1,2002-03-03T18:00:00Z,28.8425,-94.2433,2.0,237.332111,16.78512735,-99999.0,'11111222,11111222,99999999' 
TABS,ioos:station:wmo:42050:1,2002-03-03T18:30:00Z,28.8425,-94.2433,2.0,242.3033703,15.85681242,-99999.0,'11111222,11111222,99999999' 
TABS,ioos:station:wmo:42050:1,2002-03-03T19:00:00Z,28.8425,-94.2433,2.0,235.7696474,10.59524422,-99999.0,'11111222,11111222,99999999' 
TABS,ioos:station:wmo:42050:1,2002-03-03T19:30:00Z,28.8425,-94.2433,2.0,271.8434567,8.084182086,-99999.0,'11133222,11111222,99999999' 
TABS,ioos:station:wmo:42050:1,2002-03-03T20:00:00Z,28.8425,-94.2433,2.0,270.262342,8.750091428,-99999.0,'11133222,11111222,99999999' 
TABS,ioos:station:wmo:42050:1,2002-03-03T20:30:00Z,28.8425,-94.2433,2.0,259.1023888,9.256921735,-99999.0,'11133222,11111222,99999999' 
TABS,ioos:station:wmo:42050:1,2002-03-03T21:00:00Z,28.8425,-94.2433,2.0,264.2989344,11.47675912,-99999.0,'11111222,11111222,99999999' 
TABS,ioos:station:wmo:42050:1,2002-03-03T21:30:00Z,28.8425,-94.2433,2.0,264.2450272,6.482669203,-99999.0,'11133222,11111222,99999999' 
TABS,ioos:station:wmo:42050:1,2002-03-03T22:00:00Z,28.8425,-94.2433,2.0,263.612477,8.090216314,-99999.0,'11133222,11111222,99999999' 
TABS,ioos:station:wmo:42050:1,2002-03-03T22:30:00Z,28.8425,-94.2433,2.0,241.7147688,12.21890748,-99999.0,'11111222,11111222,99999999' 
TABS,ioos:station:wmo:42050:1,2002-03-03T23:00:00Z,28.8425,-94.2433,2.0,233.4184537,12.70216123,-99999.0,'11111222,11111222,99999999' 
TABS,ioos:station:wmo:42050:1,2002-03-03T23:30:00Z,28.8425,-94.2433,2.0,216.3621573,12.19447826,-99999.0,'11111222,11111222,99999999' 
TABS,ioos:station:wmo:42050:1,2002-03-04T00:00:00Z,28.8425,-94.2433,2.0,219.7749551,14.52066459,-99999.0,'11111222,11111222,99999999' 
TABS,ioos:station:wmo:42050:1,2002-03-04T00:30:00Z,28.8425,-94.2433,2.0,208.9736319,18.62053973,-99999.0,'11111222,11111222,99999999' 
TABS,ioos:station:wmo:42050:1,2002-03-04T01:00:00Z,28.8425,-94.2433,2.0,215.0345373,19.73612171,-99999.0,'11111222,11111222,99999999' 
TABS,ioos:station:wmo:42050:1,2002-03-04T01:30:00Z,28.8425,-94.2433,2.0,217.0890648,22.45216471,-99999.0,'11111222,11111222,99999999' 
TABS,ioos:station:wmo:42050:1,2002-03-04T02:00:00Z,28.8425,-94.2433,2.0,207.3249416,25.61864946,-99999.0,'11111222,11111222,99999999' 
TABS,ioos:station:wmo:42050:1,2002-03-04T02:30:00Z,28.8425,-94.2433,2.0,212.1854124,28.62962452,-99999.0,'11111222,11111222,99999999' 
TABS,ioos:station:wmo:42050:1,2002-03-04T03:00:00Z,28.8425,-94.2433,2.0,212.9907916,26.37240983,-99999.0,'11111222,11111222,99999999' 
TABS,ioos:station:wmo:42050:1,2002-03-04T03:30:00Z,28.8425,-94.2433,2.0,215.1487701,24.50905343,-99999.0,'11111222,11111222,99999999' 
TABS,ioos:station:wmo:42050:1,2002-03-04T04:00:00Z,28.8425,-94.2433,2.0,213.5244432,23.0673037,-99999.0,'11111222,11111222,99999999' 
TABS,ioos:station:wmo:42050:1,2002-03-04T04:30:00Z,28.8425,-94.2433,2.0,214.8269935,21.93994075,-99999.0,'11111222,11111222,99999999' 
TABS,ioos:station:wmo:42050:1,2002-03-04T05:00:00Z,28.8425,-94.2433,2.0,227.1914803,21.63208034,-99999.0,'11111222,11111222,99999999' 
TABS,ioos:station:wmo:42050:1,2002-03-04T05:30:00Z,28.8425,-94.2433,2.0,228.0063504,20.89548516,-99999.0,'11111222,11111222,99999999' 
TABS,ioos:station:wmo:42050:1,2002-03-04T06:00:00Z,28.8425,-94.2433,2.0,238.1108065,16.67698114,-99999.0,'11111222,11111222,99999999' 
TABS,ioos:station:wmo:42050:1,2002-03-04T06:30:00Z,28.8425,-94.2433,2.0,243.1790927,16.04618335,-99999.0,'11111222,11111222,99999999' 
TABS,ioos:station:wmo:42050:1,2002-03-04T07:00:00Z,28.8425,-94.2433,2.0,229.8229003,11.8577443,-99999.0,'11111222,11111222,99999999' 
TABS,ioos:station:wmo:42050:1,2002-03-04T07:30:00Z,28.8425,-94.2433,2.0,249.3353117,13.00680591,-99999.0,'11111222,11111222,99999999' 
TABS,ioos:station:wmo:42050:1,2002-03-04T08:00:00Z,28.8425,-94.2433,2.0,251.9786981,11.37817209,-99999.0,'11111222,11111222,99999999' 
TABS,ioos:station:wmo:42050:1,2002-03-04T08:30:00Z,28.8425,-94.2433,2.0,246.3820446,11.13245705,-99999.0,'11111222,11111222,99999999' 
TABS,ioos:station:wmo:42050:1,2002-03-04T09:00:00Z,28.8425,-94.2433,2.0,244.8206714,12.38696896,-99999.0,'11111222,11111222,99999999' 
TABS,ioos:station:wmo:42050:1,2002-03-04T09:30:00Z,28.8425,-94.2433,2.0,232.4217921,15.05314917,-99999.0,'11111222,11111222,99999999' 
TABS,ioos:station:wmo:42050:1,2002-03-04T10:00:00Z,28.8425,-94.2433,2.0,254.5307749,13.8725232,-99999.0,'11111222,11111222,99999999' 
TABS,ioos:station:wmo:42050:1,2002-03-04T10:30:00Z,28.8425,-94.2433,2.0,252.0326554,13.55081178,-99999.0,'11111222,11111222,99999999' 
TABS,ioos:station:wmo:42050:1,2002-03-04T11:00:00Z,28.8425,-94.2433,2.0,254.7309925,14.88542912,-99999.0,'11111222,11111222,99999999' 
TABS,ioos:station:wmo:42050:1,2002-03-04T11:30:00Z,28.8425,-94.2433,2.0,237.8403333,13.80864222,-99999.0,'11111222,11111222,99999999' 
TABS,ioos:station:wmo:42050:1,2002-03-04T12:00:00Z,28.8425,-94.2433,2.0,252.903657,12.4501245,-99999.0,'11111222,11111222,99999999' 
TABS,ioos:station:wmo:42050:1,2002-03-04T12:30:00Z,28.8425,-94.2433,2.0,261.3346261,12.87697558,-99999.0,'11111222,11111222,99999999' 
TABS,ioos:station:wmo:42050:1,2002-03-04T13:00:00Z,28.8425,-94.2433,2.0,264.5520303,11.27090502,-99999.0,'11111222,11111222,99999999' 
TABS,ioos:station:wmo:42050:1,2002-03-04T13:30:00Z,28.8425,-94.2433,2.0,262.6716441,10.50580792,-99999.0,'11111222,11111222,99999999' 
TABS,ioos:station:wmo:42050:1,2002-03-04T14:00:00Z,28.8425,-94.2433,2.0,228.0373998,8.539707255,-99999.0,'11133222,11111222,99999999' 
TABS,ioos:station:wmo:42050:1,2002-03-04T14:30:00Z,28.8425,-94.2433,2.0,241.9196392,8.965294195,-99999.0,'11133222,11111222,99999999' 
TABS,ioos:station:wmo:42050:1,2002-03-04T15:00:00Z,28.8425,-94.2433,2.0,218.8736034,10.86664622,-99999.0,'11111222,11111222,99999999' 
TABS,ioos:station:wmo:42050:1,2002-03-04T15:30:00Z,28.8425,-94.2433,2.0,235.0831091,6.219614136,-99999.0,'11133222,11111222,99999999' 